User: anonymous   Login
Location: Caltech
(34.1382°N, 118.1253°W)
Time: 04:14:21
(UTC-07:00)
Language:

BREEZE M DEB (TANK) - Orbit

View from above orbital plane
View from above orbital plane
View from above satellite
View from above satellite

Ground track
Ground track

The orbit data is extracted from the following two-line orbital elements,

1 33437U 08057B   15143.51369818  .00002471  00000-0  50254-3 0  9998
2 33437 049.5540 171.6648 5015257 247.1274 322.2033 05.57737726131586
Epoch (UTC): 23 May 2015 12:19:43
Eccentricity: 0.5015257
inclination: 49.5540°
perigee height: 317 km
apogee height: 13789 km
right ascension of ascending node: 171.6648°
argument of perigee: 247.1274°
revolutions per day: 5.57737726
mean anomaly at epoch: 322.2033°
orbit number at epoch: 13158

The dashed part of the orbit path shows where the satellite is in the earth's shadow,  

DLR